Simultaneous Nadir Overpasses (SNOs) Predictions

Prediction of SNOs near equator between AQUA and NPP Satellite Orbit:

Table of predicted SNOs near equator for the next 14.0 days since TLE Epoch: 6/7/2019
Index Date (AQUA) Time (AQUA) AQUA Lat,Lon Date (NPP) Time (NPP) NPP Lat,Lon Distance(km) Time Diff (sec)
1 06/10/2019 00:09:11 -5.41, 20.84 06/09/2019 23:59:25 -5.32, 20.57 30.79 586
2 06/10/2019 00:57:27 0.84,-170.57 06/10/2019 00:48:56 0.73,-171.10 60.24 511
3 06/10/2019 01:45:33 3.72, -1.94 06/10/2019 01:38:18 3.90, -2.74 90.25 435
4 06/12/2019 16:25:11 -3.76, 137.07 06/12/2019 16:15:52 -3.66, 136.71 40.94 559
5 06/12/2019 17:13:27 -0.81, -54.34 06/12/2019 17:05:23 -0.93, -54.96 70.44 484
6 06/15/2019 07:56:49 20.16, 81.68 06/15/2019 07:46:49 20.20, 81.32 38.65 600
7 06/15/2019 08:41:12 -2.12,-106.70 06/15/2019 08:32:20 -2.00,-107.15 51.16 532
8 06/15/2019 09:29:28 -2.45, 61.89 06/15/2019 09:21:51 -2.59, 61.18 80.59 457
9 06/18/2019 00:09:07 5.05,-159.10 06/17/2019 23:59:26 4.98,-159.37 31.24 581
10 06/18/2019 00:57:13 -0.48, 9.53 06/18/2019 00:48:48 -0.35, 8.99 61.41 505
11 06/18/2019 01:45:29 -4.08, 178.12 06/18/2019 01:38:19 -4.25, 177.32 90.67 430
12 06/20/2019 16:25:08 3.42, -42.87 06/20/2019 16:15:54 3.32, -43.23 41.59 554
13 06/20/2019 17:13:14 1.16, 125.76 06/20/2019 17:05:16 1.31, 125.13 71.64 478




NCC Satellite Simultaneous Nadir Overpasses (SNOs) Prediction Service
